Time,TemperatureF,DewpointF,PressureIn,WindDirection,WindDirectionDegrees,WindSpeedMPH,WindSpeedGustMPH,Humidity,HourlyPrecipIn,Conditions,Clouds,dailyrainin,SolarRadiationWatts/m^2,SoftwareType,DateUTC
2013-02-06 00:21:00,30.0,21.0,-100.00,North,3,4.0,6.0,69,0.00,,,0.01,0.000000,,2013-02-06 07:21:00,
2013-02-06 00:32:00,30.0,21.0,-100.00,North,3,4.0,6.0,69,0.00,,,0.01,0.000000,,2013-02-06 07:32:00,
2013-02-06 01:21:00,30.0,21.0,-100.00,NNE,12,4.0,7.0,69,-99.99,,,0.01,0.000000,,2013-02-06 08:21:00,
2013-02-06 02:21:00,29.0,21.0,-100.00,NNE,18,5.0,6.0,71,-99.99,,,0.01,0.000000,,2013-02-06 09:21:00,
2013-02-06 03:21:00,29.0,21.0,-100.00,NW,323,3.0,6.0,71,0.00,,,0.01,0.000000,,2013-02-06 10:21:00,
2013-02-06 04:22:00,28.0,21.0,-100.00,North,356,3.0,5.0,74,0.00,,,0.01,0.000000,,2013-02-06 11:22:00,
2013-02-06 04:32:00,28.0,21.0,-100.00,North,356,3.0,5.0,74,0.00,,,0.01,0.000000,,2013-02-06 11:32:00,
2013-02-06 05:22:00,28.0,19.0,-100.00,NE,45,1.0,5.0,69,-99.99,,,0.01,0.000000,,2013-02-06 12:22:00,
2013-02-06 06:21:00,26.0,20.0,-100.00,NNW,337,4.0,7.0,77,-99.99,,,0.01,0.000000,,2013-02-06 13:21:00,
2013-02-06 07:21:00,26.0,19.0,-100.00,North,359,4.0,6.0,73,0.00,,,0.01,0.000000,,2013-02-06 14:21:00,
2013-02-06 07:41:00,26.0,19.0,-100.00,North,359,4.0,6.0,73,0.00,,,0.01,0.000000,,2013-02-06 14:41:00,
2013-02-06 07:52:00,26.0,19.0,-100.00,North,359,4.0,6.0,73,0.00,,,0.01,0.000000,,2013-02-06 14:52:00,
2013-02-06 08:11:00,33.0,22.0,-100.00,SE,139,2.0,6.0,64,0.00,,,0.01,41.000000,,2013-02-06 15:11:00,
2013-02-06 08:21:00,33.0,22.0,-100.00,SE,139,2.0,6.0,64,0.00,,,0.01,41.000000,,2013-02-06 15:21:00,
2013-02-06 09:21:00,36.0,22.0,-100.00,SW,215,2.0,4.0,57,-99.99,,,0.00,224.000000,,2013-02-06 16:21:00,
2013-02-06 09:32:00,36.0,22.0,-100.00,SW,215,2.0,4.0,57,-99.99,,,0.00,224.000000,,2013-02-06 16:32:00,
2013-02-06 10:21:00,39.0,21.0,-100.00,SSW,213,3.0,5.0,48,-99.99,,,-99.99,396.000000,,2013-02-06 17:21:00,
2013-02-06 11:22:00,44.0,21.0,-100.00,SSE,154,4.0,10.0,40,-99.99,,,0.00,558.000000,,2013-02-06 18:22:00,
2013-02-06 12:21:00,45.0,23.0,-100.00,SSW,193,4.0,10.0,41,-99.99,,,0.00,553.000000,,2013-02-06 19:21:00,
2013-02-06 13:21:00,47.0,23.0,-100.00,SSW,194,6.0,12.0,38,-99.99,,,0.00,679.000000,,2013-02-06 20:21:00,
2013-02-06 13:31:00,47.0,23.0,-100.00,SSW,194,6.0,12.0,38,-99.99,,,0.00,679.000000,,2013-02-06 20:31:00,
2013-02-06 13:41:00,47.0,23.0,-100.00,SSW,194,6.0,12.0,38,-99.99,,,0.00,679.000000,,2013-02-06 20:41:00,
2013-02-06 13:52:00,47.0,23.0,-100.00,SSW,194,6.0,12.0,38,-99.99,,,0.00,679.000000,,2013-02-06 20:52:00,
2013-02-06 14:21:00,46.0,22.0,-100.00,SSW,212,8.0,16.0,39,0.00,,,0.00,550.000000,,2013-02-06 21:21:00,
2013-02-06 14:32:00,46.0,22.0,-100.00,SSW,212,8.0,16.0,39,0.00,,,0.00,550.000000,,2013-02-06 21:32:00,
2013-02-06 14:41:00,46.0,22.0,-100.00,SSW,212,8.0,16.0,39,0.00,,,0.00,550.000000,,2013-02-06 21:41:00,
2013-02-06 14:51:00,46.0,22.0,-100.00,SSW,212,8.0,16.0,39,0.00,,,0.00,550.000000,,2013-02-06 21:51:00,
2013-02-06 15:21:00,43.0,22.0,-100.00,West,269,8.0,17.0,42,0.00,,,0.00,372.000000,,2013-02-06 22:21:00,
2013-02-06 15:31:00,43.0,22.0,-100.00,West,269,8.0,17.0,42,0.00,,,0.00,372.000000,,2013-02-06 22:31:00,
2013-02-06 15:41:00,43.0,22.0,-100.00,West,269,8.0,17.0,42,0.00,,,0.00,372.000000,,2013-02-06 22:41:00,
2013-02-06 15:51:00,43.0,22.0,-100.00,West,269,8.0,17.0,42,0.00,,,0.00,372.000000,,2013-02-06 22:51:00,
2013-02-06 16:21:00,41.0,22.0,-100.00,West,281,8.0,17.0,47,0.00,,,0.00,147.000000,,2013-02-06 23:21:00,
2013-02-06 16:31:00,41.0,22.0,-100.00,West,281,8.0,17.0,47,0.00,,,0.00,147.000000,,2013-02-06 23:31:00,
2013-02-06 16:41:00,41.0,22.0,-100.00,West,281,8.0,17.0,47,0.00,,,0.00,147.000000,,2013-02-06 23:41:00,
2013-02-06 16:51:00,41.0,22.0,-100.00,West,281,8.0,17.0,47,0.00,,,0.00,147.000000,,2013-02-06 23:51:00,
2013-02-06 17:21:00,38.0,24.0,-100.00,NW,307,11.0,19.0,56,0.00,,,0.00,66.000000,,2013-02-07 00:21:00,
2013-02-06 17:31:00,38.0,24.0,-100.00,NW,307,11.0,19.0,56,0.00,,,0.00,66.000000,,2013-02-07 00:31:00,
2013-02-06 17:41:00,38.0,24.0,-100.00,NW,307,11.0,19.0,56,0.00,,,0.00,66.000000,,2013-02-07 00:41:00,
2013-02-06 17:51:00,38.0,24.0,-100.00,NW,307,11.0,19.0,56,0.00,,,0.00,66.000000,,2013-02-07 00:51:00,
2013-02-06 18:21:00,36.0,25.0,-100.00,NW,315,4.0,16.0,64,0.00,,,0.00,15.000000,,2013-02-07 01:21:00,
2013-02-06 18:31:00,36.0,25.0,-100.00,NW,315,4.0,16.0,64,0.00,,,0.00,15.000000,,2013-02-07 01:31:00,
2013-02-06 18:41:00,36.0,25.0,-100.00,NW,315,4.0,16.0,64,0.00,,,0.00,15.000000,,2013-02-07 01:41:00,
2013-02-06 18:52:00,36.0,25.0,-100.00,NW,315,4.0,16.0,64,0.00,,,0.00,15.000000,,2013-02-07 01:52:00,
2013-02-06 19:21:00,34.0,25.0,-100.00,NNW,348,2.0,6.0,70,0.00,,,0.00,0.000000,,2013-02-07 02:21:00,
2013-02-06 19:31:00,34.0,25.0,-100.00,NNW,348,2.0,6.0,70,0.00,,,0.00,0.000000,,2013-02-07 02:31:00,
2013-02-06 19:41:00,34.0,25.0,-100.00,NNW,348,2.0,6.0,70,0.00,,,0.00,0.000000,,2013-02-07 02:41:00,
2013-02-06 19:51:00,34.0,25.0,-100.00,NNW,348,2.0,6.0,70,0.00,,,0.00,0.000000,,2013-02-07 02:51:00,
2013-02-06 20:21:00,33.0,22.0,-100.00,North,358,4.0,7.0,64,0.00,,,0.00,0.000000,,2013-02-07 03:21:00,
2013-02-06 20:31:00,33.0,22.0,-100.00,North,358,4.0,7.0,64,0.00,,,0.00,0.000000,,2013-02-07 03:31:00,
2013-02-06 20:41:00,33.0,22.0,-100.00,North,358,4.0,7.0,64,0.00,,,0.00,0.000000,,2013-02-07 03:41:00,
2013-02-06 20:51:00,33.0,22.0,-100.00,North,358,4.0,7.0,64,0.00,,,0.00,0.000000,,2013-02-07 03:51:00,
2013-02-06 21:22:00,34.0,21.0,-100.00,NW,315,3.0,8.0,58,0.00,,,0.00,0.000000,,2013-02-07 04:22:00,
2013-02-06 21:31:00,34.0,21.0,-100.00,NW,315,3.0,8.0,58,0.00,,,0.00,0.000000,,2013-02-07 04:31:00,
2013-02-06 21:41:00,34.0,21.0,-100.00,NW,315,3.0,8.0,58,0.00,,,0.00,0.000000,,2013-02-07 04:41:00,
2013-02-06 22:21:00,31.0,20.0,-100.00,NNE,15,4.0,5.0,64,0.00,,,0.00,0.000000,,2013-02-07 05:21:00,
2013-02-06 22:32:00,31.0,20.0,-100.00,NNE,15,4.0,5.0,64,0.00,,,0.00,0.000000,,2013-02-07 05:32:00,
2013-02-06 22:42:00,31.0,20.0,-100.00,NNE,15,4.0,5.0,64,0.00,,,0.00,0.000000,,2013-02-07 05:42:00,
2013-02-06 22:52:00,31.0,20.0,-100.00,NNE,15,4.0,5.0,64,0.00,,,0.00,0.000000,,2013-02-07 05:52:00,
2013-02-06 23:22:00,30.0,20.0,-100.00,NNE,26,4.0,7.0,66,0.00,,,0.00,0.000000,,2013-02-07 06:22:00,
2013-02-06 23:31:00,30.0,20.0,-100.00,NNE,26,4.0,7.0,66,0.00,,,0.00,0.000000,,2013-02-07 06:31:00,
2013-02-06 23:43:00,30.0,20.0,-100.00,NNE,26,4.0,7.0,66,0.00,,,0.00,0.000000,,2013-02-07 06:43:00,
2013-02-06 23:52:00,30.0,20.0,-100.00,NNE,26,4.0,7.0,66,0.00,,,0.00,0.000000,,2013-02-07 06:52:00,